Zurück zum Katalog

IRIDIUM 33

AktivKommunikationPO
NORAD 24946·PAYLOAD·🇺🇸 United States

Gestartet Sep 14, 1997 von Baikonur Cosmodrome

Loading…

Nächste Überflüge (nächste 24 Stunden)

TLE

AktuellSource: Space-Track

Epoche: Sep 14, 2026, 02:51 UTC

1 24946U 97051C   26257.11877829  .00000169  00000-0  52178-4 0  9995
2 24946  86.3877 312.6437 0009302  47.2614 312.9364 14.35177135517840

Verfolge IRIDIUM 33 in Echtzeit mit AllMySat

Download on the App Store